Location: Carnières
(50.1682°N, 3.3474°E)
Time: 02:33:23
(UTC+00:00)

ADEOS II - Pass Details

Date: 23 May 2024
Orbit: 795 x 798 km, 98.7° (Epoch: 17 June)

Event Time Altitude Azimuth Distance (km) Brightness Sun altitude
Rises 02:52:02 0° 11° (N) 3,314 6.4 -7.9°
Reaches altitude 10° 02:54:25 10° 7° (N) 2,379 5.4 -7.6°
Maximum altitude 02:59:29 52° 292° (WNW) 993 2.5 -7.0°
Drops below altitude 10° 03:04:32 10° 218° (SW) 2,363 3.9 -6.4°
Enters shadow 03:05:09 - 216° (SW) 2,602 4.1 -6.4°
